Regional Weather Roundup
Issued by NWS

Home | Current Version | Previous Version | Text Only | Print | Product List | Glossary Off
Versions: 1 2 3 4 5 6 7 8 9 10 11 12 13 14 15 16 17 18 19 20 21 22 23 24 25 26 27 28 29 30 31 32 33 34 35 36 37 38 39 40 41 42 43 44 45 46 47 48 49 50

923
ASUS45 KPSR 220110
RWRAZ

ARIZONA HOURLY REGIONAL WEATHER ROUNDUP
NATIONAL WEATHER SERVICE PHOENIX AZ
600 PM MST SAT APR 21 2018

NOTE: FAIR INDICATES FEW OR NO CLOUDS BELOW 12,000 FEET WITH NO
SIGNIFICANT WEATHER AND/OR OBSTRUCTIONS TO VISIBILITY.

AZZ001>003-036-220200-
NORTHWEST ARIZONA

CITY           SKY/WX    TMP DP  RH WIND       PRES   REMARKS
BULLHEAD CITY  MOSUNNY   90  18   7 N15       29.87F
KINGMAN        SUNNY     79  22  12 MISG      30.02F
$$

AZZ004>008-015-016-018-220200-
NORTH CENTRAL ARIZONA

CITY           SKY/WX    TMP DP  RH WIND       PRES   REMARKS
GRAND CANYON   SUNNY     63  25  23 NW5       30.20S
WILLIAMS       SUNNY     64  16  15 NW7G13    30.16S
PRESCOTT       SUNNY     74  11   9 W6        30.08F
FLAGSTAFF      SUNNY     62  21  20 E10       30.19S
PAYSON         SUNNY     73  23  15 W8        30.07F
PAGE           SUNNY     73  25  16 N8        30.05S
$$

AZZ009>014-017-220200-
NORTHEAST ARIZONA

CITY           SKY/WX    TMP DP  RH WIND       PRES   REMARKS
WINSLOW        SUNNY     71  26  18 N6        30.11S
SAINT JOHNS    SUNNY     65  30  27 W6        30.13S
WINDOW ROCK    SUNNY     63  27  25 NW12      30.16R
SHOW LOW       SUNNY     61  27  27 N12G20    30.19S
$$

AZZ540-542>544-546-548-220200-
GREATER PHOENIX AREA

CITY           SKY/WX    TMP DP  RH WIND       PRES   REMARKS
PHOENIX        PTSUNNY   88  28  11 CALM      29.86S
BUCKEYE        MOSUNNY   86  28  12 W6        29.89S
GLENDALE       MOSUNNY   88  30  12 SW8       29.89F
LUKE AFB       MOSUNNY   87  30  13 SW9       29.86F
DEER VALLEY    MOSUNNY   85  27  12 SW8       29.88F
SCOTTSDALE     MOSUNNY   86  30  13 W7        29.90F
MESA-FALCON    MOSUNNY   86  32  14 W10       29.89F
MESA-GATEWAY   MOSUNNY   86  30  13 W10       29.90F
CHANDLER       PTSUNNY   88  27  11 SW3       29.88F
$$

AZZ539-553-220200-
SOUTHWEST MARICOPA COUNTY AND PINAL COUNTY

CITY           SKY/WX    TMP DP  RH WIND       PRES   REMARKS
CASA GRANDE    PTSUNNY   84  30  14 NW7       29.91F
GILA BEND      FAIR      88  23   9 NW7       29.88S
$$

AZZ503-504-507>509-220200-
SOUTHEAST ARIZONA

CITY           SKY/WX    TMP DP  RH WIND       PRES   REMARKS
TUCSON         PTSUNNY   81  25  12 NW5       29.97S
DAVIS-MONTHAN  PTSUNNY   80  27  14 NW9       29.96R
NOGALES        PTSUNNY   77  22  13 NW5       30.02R
SIERRA VISTA   MOSUNNY   74   9   8 CALM      30.07R
DOUGLAS        CLEAR     76  15  10 CALM      30.04R
SAFFORD        MOSUNNY   80  24  12 W10       29.95S
$$

AZZ532-220200-
SOUTHWEST ARIZONA

CITY           SKY/WX    TMP DP  RH WIND       PRES   REMARKS
YUMA           PTSUNNY   86  39  19 W8        29.89S
$$

CAZ041-043-047-048-061-525>527-560>570-220200-
SOUTHERN CALIFORNIA

CITY           SKY/WX    TMP DP  RH WIND       PRES   REMARKS
DOWNTOWN L.A.  NOT AVBL
L.A. AIRPORT   PTSUNNY   64  52  64 W13       29.96F
SAN DIEGO      PTSUNNY   66  55  67 W9        29.99S
BURBANK        CLOUDY    83  39  21 E9        29.95R
ONTARIO        PTSUNNY   84  32  15 W15       29.94F
RIVERSIDE      PTSUNNY   84  35  17 W16       29.94S
PALM SPRINGS   MOSUNNY   94  23   8 E3        29.88F
EL CENTRO NAS  CLOUDY    90  20   7 SW5       29.88F
IMPERIAL       CLOUDY    89  29  11 W6        29.86F
BLYTHE         CLOUDY    89  28  11 S9        29.88S
NEEDLES        MOSUNNY   91  19   7 SE5       29.89F
$$

NVZ020-UTZ003-220200-
SOUTHERN NEVADA-UTAH

CITY           SKY/WX    TMP DP  RH WIND       PRES   REMARKS
LAS VEGAS      SUNNY     84  26  12 N7        29.97F
SALT LAKE CITY MOSUNNY   68  22  17 W7        30.13S
$$

NMZ009-TXZ055-220200-
NEW MEXICO-WEST TEXAS

CITY           SKY/WX    TMP DP  RH WIND       PRES   REMARKS
ALBUQUERQUE    PTCLDY    67  26  21 W14       30.08R
EL PASO        MOCLDY    73  26  17 NE5       30.03S
$$


........................KEY........................
SKY/WX - SKY CONDITION/WEATHER
TMP    - TEMPERATURE IN FAHRENHEIT
DP     - DEW POINT IN FAHRENHEIT
RH     - RELATIVE HUMIDITY IN PERCENT
WIND   - DIRECTION AND SPEED IN MILES PER HOUR (MPH)
VRB    - VARIABLE WIND DIRECTION
PRES   - MEAN SEA LEVEL PRESSURE IN INCHES OF MERCURY
         F - FALLING PRESSURE   R - RISING PRESSURE
         S - STEADY PRESSURE
VSB    - VISIBILITY IN MILES
HX     - HEAT INDEX IN FAHRENHEIT
WCI    - WIND CHILL INDEX IN FAHRENHEIT
TC     - TEMPERATURE IN CELSIUS WHICH IS ALSO KNOWN AS
         TEMPERATURE IN CENTIGRADE
AFB    - AIR FORCE BASE
         LUKE AFB IS LUKE AIR FORCE BASE
         DAVIS-MONTHAN IS DAVIS-MONTHAN AIR FORCE BASE
NAS    - NAVAL AIR STATION
         EL CENTRO NAS IS EL CENTRO NAVAL AIR STATION
N/A    - NOT AVAILABLE





USA.gov is the U.S. government's official web portal to all federal, state and local government web resources and services.